Location: Unspecified
(51.5147°N, 7.4673°E)
Time: 22:15:07
(UTC+01:00)

Vanguard 1 - Visible Passes

Search period start: 17 February 2026 00:00
Search period end: 27 February 2026 00:00
Orbit: 652 x 3820 km, 34.3° (Epoch: 15 February)

Date Brightness Start Highest point End Pass type
(mag) Time Alt. Az. Time Alt. Az. Time Alt. Az.
17 Feb 13.2 18:22:11 10° WSW 18:36:08 44° S 18:56:29 10° ESE visible
17 Feb 13.4 20:43:11 10° W 20:59:17 36° SSW 21:13:00 20° SSE visible
17 Feb 13.9 23:08:57 10° W 23:21:23 18° SW 23:25:37 17° SSW visible
18 Feb 13.2 18:41:16 10° WSW 18:55:17 43° S 19:15:33 10° ESE visible
18 Feb 13.6 21:02:46 10° W 21:18:18 32° SSW 21:31:33 19° SSE visible
18 Feb 14.0 23:31:19 10° WSW 23:39:57 14° SW 23:44:10 13° SW visible
19 Feb 13.3 19:00:26 10° WSW 19:14:28 41° S 19:34:26 10° SE visible
19 Feb 13.7 21:22:36 10° W 21:37:15 28° SSW 21:50:12 16° S visible
20 Feb 13.4 19:19:42 10° WSW 19:33:38 38° SSW 19:53:06 10° SE visible
20 Feb 13.8 21:42:48 10° W 21:56:09 23° SW 22:08:56 13° S visible
21 Feb 13.5 19:39:05 10° WSW 19:52:46 35° SSW 20:11:28 10° SE visible
21 Feb 14.0 22:03:40 10° WSW 22:14:58 18° SW 22:27:39 10° S visible
22 Feb 13.6 19:58:38 10° WSW 20:11:52 30° SSW 20:29:30 10° SSE visible
22 Feb 14.1 22:26:01 10° WSW 22:33:43 13° SW 22:42:03 10° SSW visible
23 Feb 13.7 20:18:26 10° WSW 20:30:56 26° SSW 20:47:05 10° SSE visible
24 Feb 13.4 18:16:23 10° WSW 18:27:47 35° SSW 18:45:05 10° SE visible
24 Feb 13.9 20:38:38 10° WSW 20:49:56 21° SW 21:04:02 10° S visible
25 Feb 13.5 18:35:45 10° WSW 18:46:56 31° SSW 19:03:27 10° SE visible
25 Feb 14.1 20:59:34 10° WSW 21:08:54 16° SW 21:19:59 10° S visible
26 Feb 13.6 18:55:18 10° WSW 19:06:05 27° SSW 19:21:28 10° SSE visible
26 Feb 14.2 21:22:29 10° WSW 21:27:50 12° SW 21:33:41 10° SSW visible
